Location: Street
(51.1247°N, 2.7429°W)
Time: 15:40:05
(UTC+00:00)

SR - Pass Details

Date: 28 November 2020
Orbit: 575 x 880 km, 66.7° (Epoch: 26 January)

Event Time Altitude Azimuth Distance (km) Brightness Sun altitude
Rises 23:50:42 0° 315° (NW) 3,029 - -60.3°
Reaches altitude 10° 23:53:55 10° 339° (NNW) 2,179 - -60.4°
Maximum altitude 23:56:51 15° 15° (NNE) 1,891 - -60.4°
Drops below altitude 10° 23:59:55 10° 51° (NE) 2,299 - -60.4°
Sets 00:03:27 0° 74° (ENE) 3,293 - -60.4°
